Hourly Weather Roundup
Issued by NWS Central Illinois

Home | Current Version | Previous Version | Graphics & Text | Print | Product List | Glossary On
Versions: 1 2 3 4 5 6 7 8 9 10 11 12 13 14 15 16 17 18 19 20 21 22 23 24 25 26 27 28 29 30 31 32 33 34 35 36 37 38 39 40 41 42 43 44 45 46 47 48 49 50
000
NZUS43 KILX 150910
HWRILX

Area Weather Roundup
National Weather Service Lincoln IL
300 AM CST FRI DEC 15 2017

NOTE:  "FAIR" indicates few or no clouds below 12,000 feet, with
       no sigificant weather and/or obstructions to visibility.


CITY           SKY/WX    TMP DP  RH WIND       PRES   REMARKS
Bloomington    CLOUDY    24  18  77 W10       30.02F WCI  14
Champaign      MOCLDY    21  16  81 SW8       30.04S WCI  11
Danville       PTCLDY    20  16  83 CALM      30.01S
Decatur        MOCLDY    23  18  81 SW6       30.05F WCI  16
Effingham      CLOUDY    28  20  72 SW6       30.10S WCI  22
Flora          CLOUDY    30  22  70 W5        30.10S WCI  25
Galesburg      CLOUDY    28  21  77 W9        30.02F WCI  19
Jacksonville   CLOUDY    27  19  70 SW7       30.07S WCI  19
Lacon          CLOUDY    26  18  72 SW8       30.01S WCI  17
Lawrenceville  CLOUDY    30  21  69 W7        30.09S WCI  23
Litchfield     CLOUDY    28  19  71 SW7       30.08S WCI  20
$$


CITY           SKY/WX    TMP DP  RH WIND       PRES   REMARKS
Lincoln        CLOUDY    28  20  75 CALM      30.06S
Macomb         CLOUDY    28  20  74 SW8       30.06S WCI  19
Mattoon        CLOUDY    25  19  78 W5        30.05S WCI  19
Mt Carmel AP   CLOUDY    30  22  73 W3        30.08S
Olney-Noble AP CLOUDY    28  20  70 W3        30.09S
Paris AP       CLOUDY    25  19  78 SW6       30.06S WCI  18
Peoria         CLOUDY    26  18  71 SW7       30.03F WCI  18
Pontiac        CLOUDY    25  17  73 SW8       30.01F WCI  16
Rantoul        CLOUDY    24  19  80 SW6       30.02F WCI  17
Robinson       CLOUDY    28  21  75 W6        30.09S WCI  21
Springfield    CLOUDY    27  19  72 W7        30.07S WCI  19
Taylorville    CLOUDY    26  18  73 W3        30.08S
$$

...REGIONAL REPORTS...


CITY           SKY/WX    TMP DP  RH WIND       PRES   REMARKS
Chicago O`Hare CLOUDY    24  14  65 SW7       29.94F WCI  16
Kankakee       CLOUDY    22  13  69 SW6       30.02F WCI  14
Moline         CLOUDY    28  20  71 W10       30.01S WCI  19
Mount Sterling MOCLDY    27  20  75 SW8       30.04F WCI  18
Mount Vernon   CLOUDY    29  21  72 W3        30.11S
Pittsfield     PTCLDY    27  21  77 SW7       30.08S WCI  20
Quincy         CLOUDY    27  21  78 SW7       30.05F WCI  19
Rockford       FLURRIES  25  17  72 W12       29.96F WCI  14
$$


CITY           SKY/WX    TMP DP  RH WIND       PRES   REMARKS
Burlington     CLOUDY    28  20  71 W7        30.03S WCI  21
Cedar Rapids   CLOUDY    27  21  78 NW13      30.00S WCI  16
Des Moines     CLOUDY    29  23  78 NW9       30.08R WCI  20
Kirksville     CLOUDY    31  28  89 W6        30.07S WCI  25
Ottumwa        CLOUDY    30  24  78 NW13      30.05R WCI  20
St Louis       CLOUDY    30  22  72 W6        30.11S WCI  24
$$


CITY           SKY/WX    TMP DP  RH WIND       PRES   REMARKS
Terre Haute    CLOUDY    27  17  66 W5        30.06R WCI  22
Evansville     CLOUDY    30  23  75 W5        30.10R WCI  25
Indianapolis   CLOUDY    25  15  66 S7        30.03S WCI  17
Lafayette      PTCLDY    19  16  88 W3        30.03S
Madison        CLOUDY    23  17  78 NW12G22   29.90S WCI  12
Milwaukee      FLURRIES  23  16  74 SW10      29.90F WCI  12
$$






USA.gov is the U.S. government's official web portal to all federal, state and local government web resources and services.